{"data":{"norad_id":56881,"epoch":"2026-09-19T20:58:05.572704Z","epoch_age_seconds":171735,"freshness":"FRESH","line1":"1 56881U 23083F   26262.87367561  .00001559  00000+0  66169-4 0  9996","line2":"2 56881  43.0031  68.9464 0002714 250.7636 109.2923 15.27585578181325","mean_motion":15.27585578,"eccentricity":0.0002714,"inclination_deg":43.0031,"raan_deg":68.9464,"arg_perigee_deg":250.7636,"mean_anomaly_deg":109.2923,"bstar":6.6169e-5,"rev_number":18132,"period_min":94.266404497307,"perigee_km":481.17027217839,"apogee_km":484.89451492521,"semimajor_km":6861.1693935518,"source":"CELESTRAK","updated_at":"2026-09-21T09:00:33.520308Z"}}